When you browse on this site, cookies collect data to enhance your experience and personalize the content and advertising you see.
Visit our Privacy Policy to learn more. By continuing to use the site, you agree to this use of cookies and data.

Hourly Weather Levashovka

Today, 13 July, Monday

Time Temperature Precipitation Wind Pressure Humidity
00:00 +22°C° 0.4 mm 3 mps 753 mmHg 96%
01:00 +22°C° 0 mm 3 mps 753 mmHg 95%
02:00 +22°C° 0 mm 3 mps 753 mmHg 95%
03:00 +22°C° 0 mm 3 mps 753 mmHg 96%
04:00 +22°C° 0 mm 3 mps 753 mmHg 94%
05:00 +24°C° 0 mm 2 mps 753 mmHg 91%
06:00 +25°C° 0 mm 2 mps 752 mmHg 89%
07:00 +26°C° 0 mm 2 mps 752 mmHg 81%
08:00 +28°C° 0 mm 3 mps 752 mmHg 72%
09:00 +30°C° 0 mm 3 mps 752 mmHg 65%
10:00 +31°C° 0 mm 3 mps 752 mmHg 60%
11:00 +33°C° 0 mm 3 mps 752 mmHg 55%
12:00 +34°C° 0 mm 3 mps 752 mmHg 50%
13:00 +35°C° 0 mm 3 mps 751 mmHg 50%
14:00 +35°C° 0 mm 4 mps 751 mmHg 49%
15:00 +36°C° 0 mm 4 mps 751 mmHg 49%
16:00 +35°C° 0 mm 3 mps 751 mmHg 52%
17:00 +35°C° 0 mm 3 mps 750 mmHg 56%
18:00 +34°C° 0 mm 3 mps 750 mmHg 59%
19:00 +31°C° 0 mm 3 mps 750 mmHg 54%
20:00 +29°C° 0 mm 2 mps 750 mmHg 49%
21:00 +27°C° 0 mm 2 mps 750 mmHg 44%
22:00 +26°C° 0 mm 2 mps 750 mmHg 48%
23:00 +26°C° 0 mm 3 mps 750 mmHg 52%

Tomorrow, 14 July, Tuesday

Time Temperature Precipitation Wind Pressure Humidity
00:00 +26°C° 0 mm 3 mps 750 mmHg 56%
01:00 +25°C° 0 mm 3 mps 750 mmHg 59%
02:00 +25°C° 0 mm 3 mps 750 mmHg 62%
03:00 +24°C° 0 mm 3 mps 751 mmHg 65%
04:00 +24°C° 0 mm 3 mps 750 mmHg 65%
05:00 +25°C° 0 mm 3 mps 750 mmHg 65%
06:00 +25°C° 0 mm 3 mps 750 mmHg 65%
07:00 +27°C° 0 mm 4 mps 751 mmHg 61%
08:00 +29°C° 0 mm 4 mps 751 mmHg 56%
09:00 +32°C° 0 mm 5 mps 751 mmHg 52%
10:00 +33°C° 0 mm 6 mps 751 mmHg 47%
11:00 +35°C° 0 mm 7 mps 751 mmHg 42%
12:00 +38°C° 0 mm 8 mps 751 mmHg 37%
13:00 +37°C° 0 mm 8 mps 751 mmHg 39%
14:00 +35°C° 0 mm 8 mps 750 mmHg 41%
15:00 +35°C° 0 mm 8 mps 750 mmHg 43%
16:00 +33°C° 0.2 mm 6 mps 750 mmHg 48%
17:00 +29°C° 0.2 mm 5 mps 750 mmHg 54%
18:00 +27°C° 0.2 mm 3 mps 749 mmHg 60%
19:00 +27°C° 0 mm 4 mps 750 mmHg 59%
20:00 +27°C° 0 mm 5 mps 750 mmHg 58%
21:00 +27°C° 0 mm 5 mps 750 mmHg 57%
22:00 +27°C° 0 mm 5 mps 751 mmHg 58%
23:00 +27°C° 0 mm 5 mps 751 mmHg 60%

Day after tomorrow, 15 July, Wednesday

Time Temperature Precipitation Wind Pressure Humidity
00:00 +26°C° 0 mm 4 mps 751 mmHg 62%
01:00 +25°C° 0 mm 4 mps 751 mmHg 63%
02:00 +25°C° 0 mm 3 mps 751 mmHg 65%
03:00 +24°C° 0 mm 2 mps 751 mmHg 67%
04:00 +24°C° 0 mm 2 mps 750 mmHg 66%
05:00 +25°C° 0 mm 2 mps 750 mmHg 66%
06:00 +25°C° 0 mm 2 mps 750 mmHg 66%
07:00 +26°C° 0 mm 2 mps 750 mmHg 65%
08:00 +26°C° 0 mm 2 mps 750 mmHg 64%
09:00 +27°C° 0 mm 1 mps 750 mmHg 62%
10:00 +28°C° 0 mm 3 mps 750 mmHg 61%
11:00 +28°C° 0 mm 4 mps 750 mmHg 60%
12:00 +29°C° 0 mm 5 mps 750 mmHg 59%
13:00 +29°C° 0 mm 5 mps 750 mmHg 58%
14:00 +30°C° 0 mm 5 mps 750 mmHg 57%
15:00 +32°C° 0 mm 5 mps 750 mmHg 55%
16:00 +30°C° 0 mm 5 mps 750 mmHg 59%
17:00 +29°C° 0 mm 4 mps 750 mmHg 62%
18:00 +29°C° 0 mm 4 mps 750 mmHg 65%
19:00 +27°C° 0.1 mm 3 mps 751 mmHg 67%
20:00 +24°C° 0.1 mm 3 mps 751 mmHg 69%
21:00 +21°C° 0.1 mm 3 mps 751 mmHg 70%
22:00 +20°C° 0 mm 3 mps 752 mmHg 74%
23:00 +19°C° 0 mm 3 mps 752 mmHg 78%

16 July, Thursday

Time Temperature Precipitation Wind Pressure Humidity
00:00 +18°C° 0 mm 3 mps 752 mmHg 82%
01:00 +17°C° 0 mm 2 mps 752 mmHg 84%
02:00 +16°C° 0 mm 2 mps 752 mmHg 85%
03:00 +16°C° 0 mm 1 mps 753 mmHg 86%
04:00 +18°C° 0 mm 1 mps 753 mmHg 81%
05:00 +18°C° 0 mm 1 mps 753 mmHg 77%
06:00 +17°C° 0 mm 0 mps 753 mmHg 72%
07:00 +21°C° 0 mm 1 mps 753 mmHg 65%
08:00 +21°C° 0 mm 2 mps 752 mmHg 58%
09:00 +24°C° 0 mm 3 mps 752 mmHg 51%
10:00 +25°C° 0 mm 3 mps 752 mmHg 50%
11:00 +26°C° 0 mm 3 mps 752 mmHg 50%
12:00 +26°C° 0 mm 3 mps 752 mmHg 49%
13:00 +27°C° 0 mm 3 mps 752 mmHg 49%
14:00 +27°C° 0 mm 3 mps 752 mmHg 48%
15:00 +27°C° 0 mm 4 mps 752 mmHg 48%
16:00 +26°C° 0 mm 3 mps 751 mmHg 52%
17:00 +26°C° 0 mm 3 mps 751 mmHg 56%
18:00 +25°C° 0 mm 3 mps 751 mmHg 60%
19:00 +23°C° 0 mm 2 mps 751 mmHg 63%
20:00 +21°C° 0 mm 2 mps 751 mmHg 67%
21:00 +19°C° 0 mm 2 mps 751 mmHg 70%
22:00 +18°C° 0 mm 2 mps 751 mmHg 72%
23:00 +17°C° 0 mm 2 mps 751 mmHg 73%

17 July, Friday

Time Temperature Precipitation Wind Pressure Humidity
00:00 +17°C° 0 mm 2 mps 751 mmHg 75%
01:00 +16°C° 0 mm 1 mps 751 mmHg 78%
02:00 +15°C° 0 mm 1 mps 751 mmHg 82%
03:00 +15°C° 0 mm 1 mps 751 mmHg 85%
04:00 +16°C° 0 mm 1 mps 751 mmHg 82%
05:00 +18°C° 0 mm 1 mps 751 mmHg 79%
06:00 +19°C° 0 mm 1 mps 751 mmHg 76%
07:00 +19°C° 0 mm 2 mps 751 mmHg 71%
08:00 +20°C° 0 mm 2 mps 751 mmHg 67%
09:00 +21°C° 0 mm 2 mps 751 mmHg 62%
10:00 +23°C° 0 mm 2 mps 751 mmHg 59%
11:00 +24°C° 0 mm 3 mps 751 mmHg 56%
12:00 +25°C° 0 mm 3 mps 751 mmHg 53%
13:00 +25°C° 0 mm 3 mps 751 mmHg 52%
14:00 +25°C° 0 mm 3 mps 751 mmHg 52%
15:00 +25°C° 0 mm 3 mps 751 mmHg 52%
16:00 +25°C° 0 mm 3 mps 751 mmHg 56%
17:00 +24°C° 0 mm 3 mps 751 mmHg 61%
18:00 +24°C° 0 mm 3 mps 751 mmHg 66%
19:00 +21°C° 0 mm 2 mps 751 mmHg 72%
20:00 +19°C° 0 mm 2 mps 751 mmHg 77%
21:00 +19°C° 0 mm 1 mps 751 mmHg 83%
22:00 +17°C° 0 mm 2 mps 751 mmHg 85%
23:00 +17°C° 0 mm 2 mps 751 mmHg 88%

18 July, Saturday

Time Temperature Precipitation Wind Pressure Humidity
00:00 +16°C° 0 mm 3 mps 751 mmHg 90%
01:00 +16°C° 0 mm 3 mps 751 mmHg 91%
02:00 +16°C° 0 mm 2 mps 751 mmHg 92%
03:00 +15°C° 0 mm 2 mps 751 mmHg 93%
04:00 +16°C° 0 mm 2 mps 751 mmHg 90%
05:00 +17°C° 0 mm 2 mps 751 mmHg 87%
06:00 +18°C° 0 mm 2 mps 751 mmHg 84%
07:00 +19°C° 0 mm 2 mps 751 mmHg 77%
08:00 +21°C° 0 mm 2 mps 752 mmHg 71%
09:00 +23°C° 0 mm 2 mps 752 mmHg 64%
10:00 +24°C° 0 mm 2 mps 751 mmHg 61%
11:00 +24°C° 0 mm 2 mps 751 mmHg 58%
12:00 +25°C° 0 mm 3 mps 751 mmHg 55%
13:00 +25°C° 0.1 mm 3 mps 751 mmHg 55%
14:00 +26°C° 0.1 mm 3 mps 751 mmHg 56%
15:00 +26°C° 0.1 mm 4 mps 751 mmHg 56%
16:00 +25°C° 0.2 mm 3 mps 751 mmHg 61%
17:00 +24°C° 0.2 mm 3 mps 751 mmHg 66%
18:00 +22°C° 0.2 mm 3 mps 750 mmHg 70%
19:00 +21°C° 0 mm 3 mps 751 mmHg 77%
20:00 +19°C° 0 mm 3 mps 751 mmHg 83%
21:00 +17°C° 0 mm 3 mps 751 mmHg 89%
22:00 +17°C° 0 mm 3 mps 751 mmHg 91%
23:00 +16°C° 0 mm 3 mps 751 mmHg 92%
Show more